WMT723 LRTR-LIBD

Flight info

Callsign WMT723
Flight time 1h 16m
Altitude 36000
Route MAVIT DCT LASTI DCT PINUK DCT CRAYE/N0455F350 DCT ENOXA
Aircraft A321/M-SDE3FGHIRWY/LB1

Departure

Time 2026-05-09 14:00
Airport Timișoara Traian Vuia International Airport (LRTR)

Arrival

Time 2026-05-09 15:17
Airport Bari Karol Wojtyła International Airport (LIBD)
Time Latitude Longitude Altitude Speed Heading
2026-05-09 13:19 45.81078 21.32086 344 ft 0 kts 199°
2026-05-09 13:41 45.81085 21.32089 344 ft 2 kts 199°
2026-05-09 13:41 45.81098 21.32096 344 ft 2 kts 200°
2026-05-09 13:41 45.81099 21.32097 344 ft 2 kts 200°
2026-05-09 13:42 45.81114 21.32105 344 ft 2 kts 186°
2026-05-09 13:42 45.81127 21.32098 344 ft 2 kts 126°
2026-05-09 13:42 45.81131 21.32079 344 ft 2 kts 105°
2026-05-09 13:42 45.81137 21.32060 344 ft 2 kts 117°
2026-05-09 13:43 45.81141 21.32050 344 ft 0 kts 118°
2026-05-09 13:46 45.81126 21.32103 344 ft 9 kts 110°
2026-05-09 13:46 45.81085 21.32268 345 ft 15 kts 109°
2026-05-09 13:46 45.81059 21.32371 346 ft 8 kts 109°
2026-05-09 13:47 45.81062 21.32445 346 ft 7 kts 46°
2026-05-09 13:47 45.81088 21.32506 347 ft 6 kts 91°
2026-05-09 13:47 45.81074 21.32575 347 ft 8 kts 108°
2026-05-09 13:47 45.81051 21.32672 349 ft 13 kts 109°
2026-05-09 13:48 45.80999 21.32880 351 ft 30 kts 109°
2026-05-09 13:48 45.80930 21.33152 354 ft 24 kts 109°
2026-05-09 13:48 45.80880 21.33352 355 ft 12 kts 109°
2026-05-09 13:48 45.80864 21.33433 355 ft 8 kts 98°
2026-05-09 13:49 45.80867 21.33476 355 ft 0 kts 71°
2026-05-09 13:51 45.80892 21.33522 355 ft 7 kts 38°
2026-05-09 13:51 45.80911 21.33538 355 ft 0 kts 26°
2026-05-09 13:55 45.80927 21.33549 355 ft 12 kts 21°
2026-05-09 13:55 45.81004 21.33693 355 ft 30 kts 104°
2026-05-09 13:55 45.80913 21.34070 353 ft 44 kts 109°
2026-05-09 13:56 45.80808 21.34490 351 ft 45 kts 109°
2026-05-09 13:56 45.80699 21.34921 351 ft 46 kts 109°
2026-05-09 13:56 45.80593 21.35350 351 ft 46 kts 108°
2026-05-09 13:56 45.80503 21.35707 352 ft 25 kts 107°
2026-05-09 13:57 45.80478 21.35877 352 ft 11 kts 179°
2026-05-09 13:57 45.80477 21.35795 352 ft 10 kts 290°
2026-05-09 13:57 45.80502 21.35702 352 ft 9 kts 289°
2026-05-09 13:57 45.80509 21.35674 352 ft 0 kts 290°
2026-05-09 14:00 45.80593 21.35339 352 ft 72 kts 289°
2026-05-09 14:00 45.80742 21.34745 351 ft 116 kts 289°
2026-05-09 14:00 45.81218 21.32862 496 ft 171 kts 290°
2026-05-09 14:00 45.81595 21.31345 1252 ft 157 kts 290°
2026-05-09 14:01 45.81931 21.29883 1788 ft 159 kts 291°
2026-05-09 14:01 45.82281 21.28350 2158 ft 163 kts 291°
2026-05-09 14:01 45.82655 21.26774 2390 ft 175 kts 292°
2026-05-09 14:01 45.83093 21.25083 2634 ft 187 kts 294°
2026-05-09 14:02 45.83579 21.23285 2900 ft 201 kts 294°
2026-05-09 14:02 45.84090 21.21348 3178 ft 215 kts 293°
2026-05-09 14:02 45.84619 21.19286 3503 ft 229 kts 292°
2026-05-09 14:02 45.85177 21.17076 3943 ft 240 kts 292°
2026-05-09 14:03 45.85728 21.14861 4662 ft 239 kts 291°
2026-05-09 14:03 45.86011 21.12491 5221 ft 252 kts 266°
2026-05-09 14:03 45.85339 21.10082 5581 ft 275 kts 232°
2026-05-09 14:03 45.83756 21.08494 6126 ft 288 kts 198°
2026-05-09 14:04 45.81795 21.08381 6845 ft 290 kts 165°
2026-05-09 14:04 45.80073 21.09772 7571 ft 288 kts 131°
2026-05-09 14:04 45.78935 21.12093 8303 ft 288 kts 120°
2026-05-09 14:04 45.77605 21.14257 8942 ft 296 kts 145°
2026-05-09 14:05 45.75691 21.15224 9609 ft 300 kts 175°
2026-05-09 14:05 45.73599 21.15196 10335 ft 301 kts 184°
2026-05-09 14:05 45.71460 21.14984 10757 ft 315 kts 184°
2026-05-09 14:05 45.69208 21.14837 11063 ft 331 kts 182°
2026-05-09 14:06 45.66876 21.14780 11578 ft 339 kts 181°
2026-05-09 14:06 45.64510 21.14774 12248 ft 342 kts 180°
2026-05-09 14:06 45.62136 21.14791 12889 ft 345 kts 180°
2026-05-09 14:06 45.59755 21.14815 13505 ft 348 kts 180°
2026-05-09 14:07 45.57305 21.14841 14127 ft 351 kts 181°
2026-05-09 14:07 45.54870 21.14864 14631 ft 357 kts 181°
2026-05-09 14:07 45.52357 21.14887 15272 ft 359 kts 181°
2026-05-09 14:07 45.49880 21.14911 15996 ft 357 kts 181°
2026-05-09 14:08 45.47403 21.14934 16606 ft 359 kts 181°
2026-05-09 14:08 45.44926 21.15051 17170 ft 363 kts 175°
2026-05-09 14:08 45.42461 21.15848 17716 ft 368 kts 162°
2026-05-09 14:08 45.40118 21.17398 18263 ft 372 kts 152°
2026-05-09 14:09 45.37879 21.19247 18799 ft 375 kts 150°
2026-05-09 14:09 45.35647 21.21145 19326 ft 377 kts 150°
2026-05-09 14:09 45.33392 21.23051 19852 ft 379 kts 151°
2026-05-09 14:09 45.31102 21.24961 20365 ft 382 kts 151°
2026-05-09 14:10 45.26448 21.28614 21315 ft 385 kts 161°
2026-05-09 14:10 45.23850 21.29247 21744 ft 382 kts 182°
2026-05-09 14:10 45.21240 21.28543 22220 ft 379 kts 202°
2026-05-09 14:11 45.18930 21.26817 22682 ft 379 kts 212°
2026-05-09 14:11 45.16667 21.24920 23099 ft 382 kts 212°
2026-05-09 14:11 45.14350 21.22990 23488 ft 386 kts 211°
2026-05-09 14:11 45.12034 21.21077 23887 ft 389 kts 211°
2026-05-09 14:12 45.09685 21.19148 24281 ft 392 kts 211°
2026-05-09 14:12 45.07326 21.17217 24684 ft 395 kts 212°
2026-05-09 14:12 45.04942 21.15273 25099 ft 397 kts 212°
2026-05-09 14:12 45.02552 21.13324 25495 ft 399 kts 212°
2026-05-09 14:13 45.00106 21.11334 25882 ft 401 kts 212°
2026-05-09 14:14 44.82924 20.97417 28315 ft 415 kts 213°
2026-05-09 14:15 44.80428 20.95403 28626 ft 417 kts 213°
2026-05-09 14:15 44.77933 20.93393 28949 ft 418 kts 213°
2026-05-09 14:15 44.75389 20.91344 29268 ft 419 kts 213°
2026-05-09 14:15 44.72860 20.89310 29590 ft 421 kts 213°
2026-05-09 14:16 44.70331 20.87279 29894 ft 422 kts 213°
2026-05-09 14:16 44.67783 20.85235 30190 ft 423 kts 213°
2026-05-09 14:16 44.65231 20.83189 30460 ft 425 kts 213°
2026-05-09 14:16 44.62648 20.81120 30747 ft 426 kts 213°
2026-05-09 14:17 44.60084 20.79067 31002 ft 427 kts 213°
2026-05-09 14:17 44.57499 20.77000 31252 ft 429 kts 213°
2026-05-09 14:17 44.54936 20.74954 31542 ft 429 kts 213°
2026-05-09 14:17 44.52340 20.72884 31893 ft 428 kts 213°
2026-05-09 14:18 44.49777 20.70844 32246 ft 426 kts 213°
2026-05-09 14:18 44.47194 20.68792 32587 ft 425 kts 214°
2026-05-09 14:18 44.44604 20.66734 32941 ft 423 kts 214°
2026-05-09 14:18 44.42060 20.64713 33273 ft 422 kts 214°
2026-05-09 14:19 44.39529 20.62708 33584 ft 420 kts 214°
2026-05-09 14:19 44.36980 20.60689 33897 ft 419 kts 214°
2026-05-09 14:19 44.34465 20.58697 34192 ft 418 kts 214°
2026-05-09 14:19 44.31918 20.56683 34407 ft 418 kts 214°
2026-05-09 14:20 44.29417 20.54707 34554 ft 420 kts 215°
2026-05-09 14:20 44.26857 20.52685 34700 ft 421 kts 215°
2026-05-09 14:20 44.24322 20.50683 34892 ft 421 kts 215°
2026-05-09 14:21 44.19227 20.46669 35176 ft 423 kts 216°
2026-05-09 14:21 44.16643 20.44635 35312 ft 424 kts 216°
2026-05-09 14:21 44.14103 20.42639 35447 ft 425 kts 216°
2026-05-09 14:21 44.11518 20.40612 35575 ft 426 kts 216°
2026-05-09 14:22 44.08931 20.38585 35716 ft 427 kts 216°
2026-05-09 14:22 44.06348 20.36561 35858 ft 427 kts 216°
2026-05-09 14:22 44.03761 20.34539 35978 ft 428 kts 216°
2026-05-09 14:22 44.01149 20.32498 36070 ft 430 kts 216°
2026-05-09 14:23 43.95973 20.28459 36072 ft 431 kts 216°
2026-05-09 14:23 43.90723 20.24371 36083 ft 431 kts 216°
2026-05-09 14:24 43.85525 20.20330 36078 ft 432 kts 216°
2026-05-09 14:24 43.80264 20.16250 36086 ft 432 kts 217°
2026-05-09 14:25 43.75041 20.12208 36092 ft 433 kts 217°
2026-05-09 14:25 43.69784 20.08145 36096 ft 432 kts 217°
2026-05-09 14:26 43.64560 20.04116 36095 ft 433 kts 217°
2026-05-09 14:26 43.59291 20.00064 36103 ft 433 kts 217°
2026-05-09 14:27 43.54040 19.96030 36104 ft 434 kts 217°
2026-05-09 14:27 43.48752 19.91977 36109 ft 433 kts 217°
2026-05-09 14:28 43.43484 19.87951 36107 ft 435 kts 218°
2026-05-09 14:28 43.38197 19.83913 36113 ft 435 kts 218°
2026-05-09 14:29 43.32941 19.79914 36115 ft 434 kts 218°
2026-05-09 14:29 43.27651 19.75891 36114 ft 434 kts 218°
2026-05-09 14:30 43.22382 19.71892 36116 ft 435 kts 218°
2026-05-09 14:30 43.17092 19.67887 36119 ft 435 kts 218°
2026-05-09 14:31 43.11818 19.63904 36118 ft 433 kts 218°
2026-05-09 14:31 43.06561 19.59939 36120 ft 434 kts 218°
2026-05-09 14:32 43.01255 19.55945 36120 ft 436 kts 218°
2026-05-09 14:32 42.95952 19.51960 36122 ft 435 kts 218°
2026-05-09 14:33 42.90673 19.48005 36123 ft 434 kts 218°
2026-05-09 14:33 42.85389 19.44051 36119 ft 434 kts 218°
2026-05-09 14:34 42.80107 19.40107 36114 ft 435 kts 219°
2026-05-09 14:34 42.74830 19.36175 36111 ft 434 kts 218°
2026-05-09 14:35 42.69529 19.32231 36116 ft 434 kts 218°
2026-05-09 14:35 42.64219 19.28291 36112 ft 433 kts 218°
2026-05-09 14:36 42.58934 19.24374 36109 ft 433 kts 218°
2026-05-09 14:36 42.53663 19.20479 36096 ft 433 kts 218°
2026-05-09 14:37 42.48394 19.16588 36084 ft 433 kts 218°
2026-05-09 14:37 42.43082 19.12677 36083 ft 434 kts 218°
2026-05-09 14:38 42.37820 19.08812 36417 ft 432 kts 218°
2026-05-09 14:38 42.35171 19.06866 36223 ft 432 kts 218°
2026-05-09 14:38 42.32514 19.04918 36135 ft 431 kts 218°
2026-05-09 14:39 42.27266 19.01076 36086 ft 431 kts 218°
2026-05-09 14:39 42.22015 18.97235 36073 ft 431 kts 218°
2026-05-09 14:40 42.16753 18.93397 36061 ft 431 kts 218°
2026-05-09 14:40 42.11669 18.89313 36052 ft 423 kts 224°
2026-05-09 14:41 42.07026 18.84596 36047 ft 416 kts 230°
2026-05-09 14:41 42.02793 18.79383 36046 ft 412 kts 232°
2026-05-09 14:42 41.98633 18.74151 36042 ft 412 kts 232°
2026-05-09 14:42 41.94441 18.68888 36041 ft 411 kts 232°
2026-05-09 14:43 41.90286 18.63677 36040 ft 411 kts 232°
2026-05-09 14:43 41.86109 18.58449 36040 ft 411 kts 232°
2026-05-09 14:44 41.81999 18.53200 36040 ft 409 kts 233°
2026-05-09 14:44 41.77893 18.47942 36039 ft 408 kts 233°
2026-05-09 14:45 41.73797 18.42719 36042 ft 408 kts 232°
2026-05-09 14:45 41.69688 18.37490 36042 ft 409 kts 233°
2026-05-09 14:46 41.65572 18.32261 36043 ft 409 kts 232°
2026-05-09 14:46 41.61413 18.26984 35406 ft 414 kts 232°
2026-05-09 14:47 41.59343 18.24361 34536 ft 418 kts 232°
2026-05-09 14:47 41.57229 18.21686 33683 ft 418 kts 232°
2026-05-09 14:47 41.55138 18.19052 33005 ft 412 kts 231°
2026-05-09 14:47 41.53073 18.16447 32325 ft 412 kts 231°
2026-05-09 14:48 41.51025 18.13808 31577 ft 411 kts 233°
2026-05-09 14:48 41.49083 18.11053 30836 ft 409 kts 235°
2026-05-09 14:48 41.47231 18.08215 30286 ft 405 kts 236°
2026-05-09 14:48 41.45380 18.05381 29732 ft 402 kts 236°
2026-05-09 14:49 41.43557 18.02591 29192 ft 399 kts 236°
2026-05-09 14:49 41.41744 17.99820 28677 ft 396 kts 236°
2026-05-09 14:49 41.39950 17.97076 28165 ft 392 kts 236°
2026-05-09 14:49 41.38191 17.94386 27650 ft 389 kts 236°
2026-05-09 14:50 41.36414 17.91670 27119 ft 384 kts 236°
2026-05-09 14:50 41.34693 17.89045 26620 ft 378 kts 236°
2026-05-09 14:50 41.32967 17.86410 26129 ft 375 kts 236°
2026-05-09 14:50 41.31270 17.83817 25643 ft 372 kts 236°
2026-05-09 14:51 41.29581 17.81244 25164 ft 369 kts 236°
2026-05-09 14:51 41.27896 17.78680 24690 ft 367 kts 236°
2026-05-09 14:51 41.26231 17.76147 24221 ft 364 kts 236°
2026-05-09 14:51 41.24576 17.73631 23750 ft 362 kts 236°
2026-05-09 14:52 41.22937 17.71141 23291 ft 360 kts 236°
2026-05-09 14:52 41.21372 17.68550 22823 ft 353 kts 243°
2026-05-09 14:52 41.20217 17.65731 22369 ft 345 kts 252°
2026-05-09 14:52 41.19476 17.62783 21883 ft 339 kts 261°
2026-05-09 14:53 41.18961 17.59742 21409 ft 338 kts 262°
2026-05-09 14:53 41.18468 17.56683 20927 ft 337 kts 262°
2026-05-09 14:53 41.17983 17.53676 20446 ft 337 kts 262°
2026-05-09 14:53 41.17489 17.50615 19953 ft 337 kts 262°
2026-05-09 14:54 41.17001 17.47614 19489 ft 337 kts 262°
2026-05-09 14:54 41.16506 17.44573 19022 ft 337 kts 262°
2026-05-09 14:54 41.16014 17.41555 18544 ft 337 kts 262°
2026-05-09 14:54 41.15515 17.38513 18066 ft 336 kts 262°
2026-05-09 14:55 41.15021 17.35505 17602 ft 336 kts 262°
2026-05-09 14:55 41.14524 17.32482 17113 ft 336 kts 261°
2026-05-09 14:55 41.14027 17.29470 16653 ft 336 kts 261°
2026-05-09 14:55 41.13527 17.26446 16192 ft 336 kts 261°
2026-05-09 14:56 41.13024 17.23403 15704 ft 337 kts 261°
2026-05-09 14:56 41.12529 17.20417 15236 ft 336 kts 261°
2026-05-09 14:56 41.12023 17.17383 14768 ft 336 kts 261°
2026-05-09 14:56 41.11523 17.14373 14290 ft 336 kts 261°
2026-05-09 14:57 41.11021 17.11362 13839 ft 335 kts 261°
2026-05-09 14:57 41.10515 17.08331 13364 ft 335 kts 260°
2026-05-09 14:57 41.10013 17.05338 12909 ft 334 kts 260°
2026-05-09 14:57 41.09512 17.02352 12462 ft 333 kts 260°
2026-05-09 14:58 41.09010 16.99375 12009 ft 332 kts 260°
2026-05-09 14:58 41.08506 16.96375 11561 ft 331 kts 260°
2026-05-09 14:58 41.07967 16.93440 11127 ft 330 kts 257°
2026-05-09 14:58 41.07264 16.90574 10687 ft 330 kts 253°
2026-05-09 14:59 41.06472 16.87734 10293 ft 327 kts 252°
2026-05-09 14:59 41.05691 16.84978 10191 ft 314 kts 252°
2026-05-09 14:59 41.04934 16.82317 10088 ft 302 kts 252°
2026-05-09 14:59 41.04205 16.79744 9827 ft 297 kts 252°
2026-05-09 15:00 41.03484 16.77198 9546 ft 292 kts 252°
2026-05-09 15:00 41.02787 16.74733 9286 ft 287 kts 252°
2026-05-09 15:00 41.02093 16.72286 9100 ft 280 kts 252°
2026-05-09 15:00 41.01418 16.69917 9083 ft 266 kts 252°
2026-05-09 15:01 41.00176 16.65568 9082 ft 245 kts 252°
2026-05-09 15:01 40.99575 16.63451 9084 ft 245 kts 252°
2026-05-09 15:01 40.98970 16.61331 9087 ft 245 kts 253°
2026-05-09 15:02 40.98360 16.59193 9089 ft 245 kts 252°
2026-05-09 15:02 40.97762 16.57093 9092 ft 245 kts 252°
2026-05-09 15:02 40.97158 16.54980 9086 ft 244 kts 252°
2026-05-09 15:02 40.96553 16.52865 9089 ft 244 kts 252°
2026-05-09 15:03 40.95972 16.50837 9084 ft 243 kts 252°
2026-05-09 15:03 40.95379 16.48764 9088 ft 243 kts 252°
2026-05-09 15:03 40.94776 16.46657 9095 ft 240 kts 252°
2026-05-09 15:03 40.94204 16.44662 9082 ft 228 kts 252°
2026-05-09 15:04 40.93647 16.42725 9091 ft 224 kts 252°
2026-05-09 15:04 40.93100 16.40811 9168 ft 227 kts 252°
2026-05-09 15:06 40.89084 16.26873 9099 ft 232 kts 252°
2026-05-09 15:06 40.88511 16.24890 9098 ft 232 kts 252°
2026-05-09 15:06 40.88057 16.22835 9084 ft 229 kts 270°
2026-05-09 15:06 40.88427 16.20874 9071 ft 223 kts 302°
2026-05-09 15:07 40.89524 16.19463 9085 ft 215 kts 330°
2026-05-09 15:07 40.90862 16.18766 9173 ft 198 kts 337°
2026-05-09 15:07 40.92095 16.18163 9101 ft 183 kts 337°
2026-05-09 15:07 40.93251 16.17588 9080 ft 172 kts 336°
2026-05-09 15:08 40.94377 16.17047 9088 ft 173 kts 342°
2026-05-09 15:08 40.96869 16.17683 9004 ft 211 kts 21°
2026-05-09 15:08 40.98272 16.18544 9025 ft 230 kts 21°
2026-05-09 15:09 40.99606 16.19758 8889 ft 239 kts 50°
2026-05-09 15:10 41.02652 16.35436 6241 ft 263 kts 69°
2026-05-09 15:11 41.03258 16.37688 5730 ft 261 kts 68°
2026-05-09 15:11 41.03896 16.39924 5148 ft 261 kts 67°
2026-05-09 15:11 41.04577 16.42125 4676 ft 255 kts 66°
2026-05-09 15:11 41.05222 16.44283 4182 ft 251 kts 65°
2026-05-09 15:12 41.05878 16.46384 3805 ft 243 kts 65°
2026-05-09 15:12 41.06535 16.48419 3494 ft 239 kts 65°
2026-05-09 15:12 41.07126 16.50444 3144 ft 233 kts 69°
2026-05-09 15:12 41.07599 16.52448 2837 ft 226 kts 72°
2026-05-09 15:13 41.07953 16.54435 2651 ft 214 kts 76°
2026-05-09 15:13 41.08225 16.56297 2438 ft 199 kts 75°
2026-05-09 15:13 41.08506 16.58019 2282 ft 183 kts 73°
2026-05-09 15:13 41.08861 16.59505 2289 ft 159 kts 65°
2026-05-09 15:14 41.09288 16.60806 2205 ft 149 kts 61°
2026-05-09 15:14 41.09763 16.62024 2106 ft 148 kts 57°
2026-05-09 15:14 41.10232 16.63233 2003 ft 148 kts 61°
2026-05-09 15:14 41.10607 16.64511 1848 ft 150 kts 68°
2026-05-09 15:15 41.10936 16.65827 1625 ft 149 kts 68°
2026-05-09 15:15 41.11292 16.67094 1393 ft 148 kts 66°
2026-05-09 15:15 41.11673 16.68357 1139 ft 146 kts 65°
2026-05-09 15:15 41.12030 16.69611 894 ft 146 kts 67°
2026-05-09 15:16 41.12390 16.70875 704 ft 146 kts 66°
2026-05-09 15:16 41.12748 16.72140 527 ft 145 kts 69°
2026-05-09 15:16 41.13091 16.73394 357 ft 144 kts 67°
2026-05-09 15:16 41.13444 16.74624 198 ft 142 kts 67°
2026-05-09 15:17 41.13759 16.75724 160 ft 106 kts 69°
2026-05-09 15:17 41.13956 16.76427 145 ft 49 kts 70°
2026-05-09 15:17 41.13972 16.76702 140 ft 10 kts 102°
2026-05-09 15:17 41.13953 16.76761 139 ft 4 kts 114°
2026-05-09 15:18 41.13938 16.76797 138 ft 7 kts 129°
2026-05-09 15:18 41.13872 16.76802 139 ft 18 kts 188°
2026-05-09 15:18 41.13706 16.76772 141 ft 1 kts 197°
2026-05-09 15:18 41.13712 16.76759 141 ft 0 kts 158°
2026-05-09 15:19 41.13706 16.76743 142 ft 0 kts 118°
2026-05-09 15:19 41.13706 16.76745 142 ft 0 kts 118°